Wetterdaten: Samstag, 19.09.2015
Datum Zeit Auen-Temp. Temp gefhlt Luftfeuchte Luftdruck Regen Wind Richtung Richtung Taupunkt Windben
19.09.2015 00:00 8,9 C 8,7 C 90 % 1022,1 hPa 0,0 mm 0,3 km/h (0 Bft) W 270 7,4 C 0,0 km/h (0 Bft)
19.09.2015 00:05 8,9 C 8,7 C 90 % 1022,1 hPa 0,0 mm 0,0 km/h (0 Bft) W 270 7,4 C 0,0 km/h (0 Bft)
19.09.2015 00:10 8,6 C 8,4 C 90 % 1022,1 hPa 0,0 mm 0,0 km/h (0 Bft) S 180 7,1 C 2,8 km/h (1 Bft)
19.09.2015 00:15 8,8 C 8,6 C 90 % 1022,1 hPa 0,0 mm 0,3 km/h (0 Bft) S 180 7,3 C 0,0 km/h (0 Bft)
19.09.2015 00:20 8,6 C 8,5 C 90 % 1022,1 hPa 0,0 mm 0,3 km/h (0 Bft) S 180 7,1 C 0,0 km/h (0 Bft)
19.09.2015 00:25 8,5 C 8,4 C 90 % 1022,1 hPa 0,0 mm 0,0 km/h (0 Bft) S 180 7,0 C 0,0 km/h (0 Bft)
19.09.2015 00:30 8,2 C 8,2 C 90 % 1022,1 hPa 0,0 mm 0,0 km/h (0 Bft) S 180 6,7 C 0,0 km/h (0 Bft)
19.09.2015 00:35 8,3 C 8,2 C 90 % 1022,1 hPa 0,0 mm 0,0 km/h (0 Bft) S 180 6,8 C 0,0 km/h (0 Bft)
19.09.2015 00:40 8,4 C 8,3 C 90 % 1022,1 hPa 0,0 mm 0,0 km/h (0 Bft) S 180 6,9 C 0,0 km/h (0 Bft)
19.09.2015 00:45 8,3 C 8,2 C 90 % 1022,1 hPa 0,0 mm 0,0 km/h (0 Bft) S 180 6,8 C 0,0 km/h (0 Bft)
19.09.2015 00:50 8,3 C 8,2 C 90 % 1022,1 hPa 0,0 mm 0,0 km/h (0 Bft) S 180 6,8 C 0,0 km/h (0 Bft)
19.09.2015 00:55 8,3 C 8,2 C 90 % 1022,1 hPa 0,0 mm 0,0 km/h (0 Bft) S 180 6,8 C 0,0 km/h (0 Bft)
19.09.2015 01:00 8,1 C 8,0 C 90 % 1022,1 hPa 0,0 mm 0,0 km/h (0 Bft) W 270 6,6 C 3,4 km/h (1 Bft)
19.09.2015 01:05 8,4 C 8,2 C 90 % 1022,1 hPa 0,0 mm 0,0 km/h (0 Bft) NW 315 6,9 C 0,0 km/h (0 Bft)
19.09.2015 01:10 8,4 C 8,2 C 90 % 1022,1 hPa 0,0 mm 0,0 km/h (0 Bft) NW 315 6,9 C 0,0 km/h (0 Bft)
19.09.2015 01:15 8,2 C 8,1 C 90 % 1022,2 hPa 0,0 mm 0,0 km/h (0 Bft) NW 315 6,7 C 0,0 km/h (0 Bft)
19.09.2015 01:20 8,3 C 8,1 C 90 % 1022,2 hPa 0,0 mm 0,0 km/h (0 Bft) W-SW 247 6,8 C 0,0 km/h (0 Bft)
19.09.2015 01:25 8,2 C 8,1 C 90 % 1022,2 hPa 0,0 mm 0,0 km/h (0 Bft) W-SW 247 6,7 C 0,0 km/h (0 Bft)
19.09.2015 01:30 8,2 C 8,1 C 90 % 1022,2 hPa 0,0 mm 0,0 km/h (0 Bft) NW 315 6,7 C 0,0 km/h (0 Bft)
19.09.2015 01:35 8,0 C 7,9 C 90 % 1022,1 hPa 0,0 mm 0,0 km/h (0 Bft) NW 315 6,5 C 0,0 km/h (0 Bft)
19.09.2015 01:40 8,0 C 7,9 C 90 % 1022,1 hPa 0,0 mm 0,0 km/h (0 Bft) NW 315 6,5 C 0,0 km/h (0 Bft)
19.09.2015 01:45 7,8 C 7,7 C 90 % 1022,1 hPa 0,0 mm 0,0 km/h (0 Bft) NW 315 6,3 C 0,0 km/h (0 Bft)
19.09.2015 01:50 7,9 C 7,7 C 90 % 1022,1 hPa 0,0 mm 0,0 km/h (0 Bft) NW 315 6,4 C 0,0 km/h (0 Bft)
19.09.2015 01:55 7,9 C 7,7 C 90 % 1021,9 hPa 0,0 mm 0,0 km/h (0 Bft) NW 315 6,4 C 0,0 km/h (0 Bft)
19.09.2015 02:00 8,0 C 7,8 C 90 % 1021,9 hPa 0,0 mm 0,0 km/h (0 Bft) NW 315 6,5 C 0,0 km/h (0 Bft)
19.09.2015 02:05 7,6 C 7,5 C 90 % 1021,9 hPa 0,0 mm 0,0 km/h (0 Bft) NW 315 6,1 C 0,0 km/h (0 Bft)
19.09.2015 02:10 7,4 C 7,3 C 90 % 1021,9 hPa 0,0 mm 0,0 km/h (0 Bft) NW 315 5,9 C 0,0 km/h (0 Bft)
19.09.2015 02:15 7,4 C 7,3 C 90 % 1021,9 hPa 0,0 mm 0,0 km/h (0 Bft) NW 315 5,9 C 0,0 km/h (0 Bft)
19.09.2015 02:20 7,4 C 7,2 C 90 % 1021,9 hPa 0,0 mm 0,0 km/h (0 Bft) NW 315 5,9 C 0,0 km/h (0 Bft)
19.09.2015 02:25 7,3 C 7,2 C 90 % 1021,9 hPa 0,0 mm 0,0 km/h (0 Bft) NW 315 5,8 C 0,0 km/h (0 Bft)
19.09.2015 02:30 7,3 C 7,1 C 90 % 1021,9 hPa 0,0 mm 0,0 km/h (0 Bft) NW 315 5,8 C 0,0 km/h (0 Bft)
19.09.2015 02:35 7,2 C 7,0 C 90 % 1021,8 hPa 0,0 mm 0,0 km/h (0 Bft) NW 315 5,7 C 0,0 km/h (0 Bft)
19.09.2015 02:40 7,1 C 6,9 C 90 % 1021,8 hPa 0,0 mm 0,0 km/h (0 Bft) NW 315 5,6 C 0,0 km/h (0 Bft)
19.09.2015 02:45 7,3 C 7,0 C 90 % 1021,8 hPa 0,0 mm 0,0 km/h (0 Bft) W 270 5,8 C 0,0 km/h (0 Bft)
19.09.2015 02:50 7,2 C 7,0 C 90 % 1021,8 hPa 0,0 mm 0,0 km/h (0 Bft) W 270 5,7 C 0,0 km/h (0 Bft)
19.09.2015 02:55 7,2 C 7,0 C 90 % 1021,7 hPa 0,0 mm 0,0 km/h (0 Bft) W 270 5,7 C 0,0 km/h (0 Bft)
19.09.2015 03:00 7,3 C 7,0 C 90 % 1021,7 hPa 0,0 mm 0,0 km/h (0 Bft) W 270 5,8 C 0,0 km/h (0 Bft)
19.09.2015 03:05 7,2 C 7,0 C 90 % 1021,7 hPa 0,0 mm 0,0 km/h (0 Bft) W 270 5,7 C 0,0 km/h (0 Bft)
19.09.2015 03:10 7,0 C 6,8 C 90 % 1021,7 hPa 0,0 mm 0,0 km/h (0 Bft) W-NW 292 5,5 C 0,0 km/h (0 Bft)
19.09.2015 03:15 7,0 C 6,8 C 90 % 1021,6 hPa 0,0 mm 0,0 km/h (0 Bft) W-NW 292 5,5 C 0,0 km/h (0 Bft)
19.09.2015 03:20 7,3 C 7,1 C 90 % 1021,6 hPa 0,0 mm 0,0 km/h (0 Bft) SW 225 5,8 C 0,0 km/h (0 Bft)
19.09.2015 03:25 7,4 C 7,2 C 90 % 1021,6 hPa 0,0 mm 0,0 km/h (0 Bft) SW 225 5,9 C 0,0 km/h (0 Bft)
19.09.2015 03:30 7,3 C 7,1 C 90 % 1021,6 hPa 0,0 mm 0,0 km/h (0 Bft) W-SW 247 5,8 C 4,4 km/h (1 Bft)
19.09.2015 03:35 7,3 C 7,2 C 90 % 1021,6 hPa 0,0 mm 0,3 km/h (0 Bft) NW 315 5,8 C 0,0 km/h (0 Bft)
19.09.2015 03:40 7,2 C 7,1 C 90 % 1021,6 hPa 0,0 mm 0,3 km/h (0 Bft) W-NW 292 5,7 C 0,0 km/h (0 Bft)
19.09.2015 03:45 7,2 C 7,1 C 90 % 1021,6 hPa 0,0 mm 0,0 km/h (0 Bft) W 270 5,7 C 0,0 km/h (0 Bft)
19.09.2015 03:50 7,2 C 7,0 C 90 % 1021,6 hPa 0,0 mm 0,0 km/h (0 Bft) NW 315 5,7 C 0,0 km/h (0 Bft)
19.09.2015 03:55 7,2 C 7,0 C 90 % 1021,4 hPa 0,0 mm 0,0 km/h (0 Bft) W 270 5,7 C 0,0 km/h (0 Bft)
19.09.2015 04:00 7,1 C 6,9 C 90 % 1021,4 hPa 0,0 mm 0,0 km/h (0 Bft) NW 315 5,6 C 0,0 km/h (0 Bft)
19.09.2015 04:05 7,2 C 7,0 C 90 % 1021,4 hPa 0,0 mm 0,0 km/h (0 Bft) N-NW 337 5,7 C 0,0 km/h (0 Bft)
19.09.2015 04:10 7,5 C 7,2 C 91 % 1021,4 hPa 0,0 mm 0,0 km/h (0 Bft) N-NW 337 6,1 C 0,0 km/h (0 Bft)
19.09.2015 04:15 7,3 C 7,2 C 91 % 1021,4 hPa 0,0 mm 0,3 km/h (0 Bft) NW 315 5,9 C 0,0 km/h (0 Bft)
19.09.2015 04:20 7,3 C 7,2 C 91 % 1021,4 hPa 0,0 mm 0,3 km/h (0 Bft) W 270 5,9 C 0,0 km/h (0 Bft)
19.09.2015 04:25 7,3 C 7,2 C 91 % 1021,4 hPa 0,0 mm 0,3 km/h (0 Bft) N-NW 337 5,9 C 0,0 km/h (0 Bft)
19.09.2015 04:30 7,4 C 7,3 C 91 % 1021,4 hPa 0,0 mm 0,3 km/h (0 Bft) N-NO 22 6,0 C 0,0 km/h (0 Bft)
19.09.2015 04:34 7,1 C 7,1 C 91 % 1021,2 hPa 0,0 mm 0,0 km/h (0 Bft) N-NO 22 5,7 C 0,0 km/h (0 Bft)
19.09.2015 04:35 7,1 C 7,1 C 91 % 1021,2 hPa 0,0 mm 0,0 km/h (0 Bft) N-NO 22 5,7 C 0,0 km/h (0 Bft)
19.09.2015 04:40 7,3 C 7,2 C 91 % 1021,2 hPa 0,0 mm 0,0 km/h (0 Bft) N-NO 22 5,9 C 0,0 km/h (0 Bft)
19.09.2015 04:45 7,0 C 7,0 C 91 % 1021,2 hPa 0,0 mm 0,0 km/h (0 Bft) N-NO 22 5,6 C 0,0 km/h (0 Bft)
19.09.2015 04:50 6,9 C 6,8 C 91 % 1021,2 hPa 0,0 mm 0,0 km/h (0 Bft) N-NO 22 5,5 C 0,0 km/h (0 Bft)
19.09.2015 04:55 6,8 C 6,8 C 91 % 1021,3 hPa 0,0 mm 0,0 km/h (0 Bft) N-NO 22 5,4 C 0,0 km/h (0 Bft)
19.09.2015 05:00 6,8 C 6,7 C 91 % 1021,3 hPa 0,0 mm 0,0 km/h (0 Bft) NW 315 5,4 C 0,0 km/h (0 Bft)
19.09.2015 05:05 7,3 C 7,1 C 91 % 1021,3 hPa 0,0 mm 0,0 km/h (0 Bft) N-NO 22 5,9 C 0,0 km/h (0 Bft)
19.09.2015 05:10 7,3 C 7,2 C 91 % 1021,3 hPa 0,0 mm 0,0 km/h (0 Bft) N-NO 22 5,9 C 0,0 km/h (0 Bft)
19.09.2015 05:15 7,3 C 7,2 C 91 % 1021,2 hPa 0,0 mm 0,0 km/h (0 Bft) N-NO 22 5,9 C 0,0 km/h (0 Bft)
19.09.2015 05:20 7,4 C 7,4 C 88 % 1021,2 hPa 0,0 mm 0,0 km/h (0 Bft) N-NO 22 5,5 C 0,0 km/h (0 Bft)
19.09.2015 05:25 7,6 C 7,6 C 88 % 1021,2 hPa 0,0 mm 0,0 km/h (0 Bft) N-NO 22 5,7 C 0,0 km/h (0 Bft)
19.09.2015 05:30 7,7 C 7,8 C 88 % 1021,2 hPa 0,0 mm 0,0 km/h (0 Bft) N-NO 22 5,8 C 0,0 km/h (0 Bft)
19.09.2015 05:35 7,8 C 7,8 C 88 % 1021,2 hPa 0,0 mm 0,0 km/h (0 Bft) N-NO 22 5,9 C 0,0 km/h (0 Bft)
19.09.2015 05:40 7,9 C 7,8 C 92 % 1021,2 hPa 0,0 mm 0,0 km/h (0 Bft) N-NO 22 6,7 C 0,0 km/h (0 Bft)
19.09.2015 05:45 7,9 C 7,8 C 92 % 1021,2 hPa 0,0 mm 0,0 km/h (0 Bft) N-NO 22 6,7 C 0,0 km/h (0 Bft)
19.09.2015 05:50 7,9 C 7,8 C 92 % 1021,2 hPa 0,0 mm 0,0 km/h (0 Bft) N-NO 22 6,7 C 0,0 km/h (0 Bft)
19.09.2015 05:55 7,9 C 7,8 C 92 % 1021,1 hPa 0,0 mm 0,0 km/h (0 Bft) N-NO 22 6,7 C 0,0 km/h (0 Bft)
19.09.2015 06:00 7,8 C 7,7 C 92 % 1021,1 hPa 0,0 mm 0,0 km/h (0 Bft) N-NO 22 6,6 C 0,0 km/h (0 Bft)
19.09.2015 06:05 7,8 C 7,8 C 88 % 1021,1 hPa 0,0 mm 0,0 km/h (0 Bft) N-NO 22 5,9 C 0,0 km/h (0 Bft)
19.09.2015 06:10 7,5 C 7,4 C 92 % 1021,1 hPa 0,0 mm 0,0 km/h (0 Bft) N-NO 22 6,3 C 0,0 km/h (0 Bft)
19.09.2015 06:15 7,3 C 7,2 C 92 % 1021,2 hPa 0,0 mm 0,0 km/h (0 Bft) N-NO 22 6,1 C 0,0 km/h (0 Bft)
19.09.2015 06:20 7,0 C 6,9 C 92 % 1021,2 hPa 0,0 mm 0,0 km/h (0 Bft) W-NW 292 5,8 C 0,0 km/h (0 Bft)
19.09.2015 06:25 7,0 C 6,9 C 92 % 1021,2 hPa 0,0 mm 0,0 km/h (0 Bft) W 270 5,8 C 0,0 km/h (0 Bft)
19.09.2015 06:30 7,1 C 6,9 C 92 % 1021,2 hPa 0,0 mm 0,0 km/h (0 Bft) W-SW 247 5,9 C 0,0 km/h (0 Bft)
19.09.2015 06:35 7,1 C 6,9 C 92 % 1021,2 hPa 0,0 mm 0,0 km/h (0 Bft) S-SW 202 5,9 C 0,0 km/h (0 Bft)
19.09.2015 06:40 7,1 C 6,9 C 92 % 1021,2 hPa 0,0 mm 0,0 km/h (0 Bft) S 180 5,9 C 0,0 km/h (0 Bft)
19.09.2015 06:45 7,0 C 6,8 C 92 % 1021,2 hPa 0,0 mm 0,0 km/h (0 Bft) W-NW 292 5,8 C 0,0 km/h (0 Bft)
19.09.2015 06:50 6,6 C 6,5 C 92 % 1021,2 hPa 0,0 mm 0,0 km/h (0 Bft) W-NW 292 5,4 C 0,0 km/h (0 Bft)
19.09.2015 06:55 6,3 C 6,2 C 92 % 1021,3 hPa 0,0 mm 0,0 km/h (0 Bft) W-NW 292 5,1 C 0,0 km/h (0 Bft)
19.09.2015 07:00 6,2 C 6,1 C 92 % 1021,3 hPa 0,0 mm 0,0 km/h (0 Bft) W-NW 292 5,0 C 0,0 km/h (0 Bft)
19.09.2015 07:05 6,1 C 6,0 C 92 % 1021,3 hPa 0,0 mm 0,0 km/h (0 Bft) W-NW 292 4,9 C 0,0 km/h (0 Bft)
19.09.2015 07:10 6,1 C 6,0 C 92 % 1021,3 hPa 0,0 mm 0,0 km/h (0 Bft) W-NW 292 4,9 C 0,0 km/h (0 Bft)
19.09.2015 07:15 6,4 C 6,2 C 92 % 1021,3 hPa 0,0 mm 0,0 km/h (0 Bft) W-SW 247 5,2 C 0,0 km/h (0 Bft)
19.09.2015 07:20 6,4 C 6,2 C 92 % 1021,3 hPa 0,0 mm 0,0 km/h (0 Bft) W 270 5,2 C 0,0 km/h (0 Bft)
19.09.2015 07:25 6,2 C 6,1 C 92 % 1021,3 hPa 0,0 mm 0,0 km/h (0 Bft) W-NW 292 5,0 C 0,0 km/h (0 Bft)
19.09.2015 07:30 6,2 C 6,1 C 92 % 1021,3 hPa 0,0 mm 0,0 km/h (0 Bft) W-NW 292 5,0 C 0,0 km/h (0 Bft)
19.09.2015 07:35 6,2 C 6,1 C 92 % 1021,4 hPa 0,0 mm 0,0 km/h (0 Bft) W-NW 292 5,0 C 0,0 km/h (0 Bft)
19.09.2015 07:40 6,5 C 6,4 C 92 % 1021,4 hPa 0,0 mm 0,0 km/h (0 Bft) W-NW 292 5,3 C 0,0 km/h (0 Bft)
19.09.2015 07:45 6,7 C 6,7 C 88 % 1021,4 hPa 0,0 mm 0,0 km/h (0 Bft) W-NW 292 4,9 C 0,0 km/h (0 Bft)
19.09.2015 07:50 7,0 C 7,1 C 88 % 1021,4 hPa 0,0 mm 0,0 km/h (0 Bft) W-NW 292 5,2 C 0,0 km/h (0 Bft)
19.09.2015 07:55 7,1 C 7,3 C 88 % 1021,4 hPa 0,0 mm 0,0 km/h (0 Bft) W-NW 292 5,2 C 0,0 km/h (0 Bft)
19.09.2015 08:00 7,4 C 7,7 C 88 % 1021,4 hPa 0,0 mm 0,0 km/h (0 Bft) W-NW 292 5,5 C 0,0 km/h (0 Bft)
19.09.2015 08:05 7,6 C 7,9 C 88 % 1021,4 hPa 0,0 mm 0,0 km/h (0 Bft) W-NW 292 5,7 C 0,0 km/h (0 Bft)
19.09.2015 08:10 7,9 C 8,3 C 88 % 1021,4 hPa 0,0 mm 0,0 km/h (0 Bft) W 270 6,0 C 0,0 km/h (0 Bft)
19.09.2015 08:15 8,0 C 8,4 C 88 % 1021,5 hPa 0,0 mm 0,0 km/h (0 Bft) W-NW 292 6,1 C 0,0 km/h (0 Bft)
19.09.2015 08:20 8,2 C 8,7 C 88 % 1021,5 hPa 0,0 mm 0,0 km/h (0 Bft) W 270 6,3 C 0,0 km/h (0 Bft)
19.09.2015 08:25 8,4 C 8,7 C 88 % 1021,5 hPa 0,0 mm 0,0 km/h (0 Bft) W-NW 292 6,5 C 0,0 km/h (0 Bft)
19.09.2015 08:30 8,5 C 8,9 C 88 % 1021,5 hPa 0,0 mm 0,0 km/h (0 Bft) W-NW 292 6,6 C 0,0 km/h (0 Bft)
19.09.2015 08:35 8,5 C 9,0 C 88 % 1021,4 hPa 0,0 mm 0,0 km/h (0 Bft) W-NW 292 6,6 C 0,0 km/h (0 Bft)
19.09.2015 08:40 8,6 C 9,0 C 88 % 1021,4 hPa 0,0 mm 0,0 km/h (0 Bft) W-NW 292 6,7 C 0,0 km/h (0 Bft)
19.09.2015 08:45 8,7 C 9,1 C 88 % 1021,4 hPa 0,0 mm 0,0 km/h (0 Bft) W 270 6,8 C 0,0 km/h (0 Bft)
19.09.2015 08:50 8,9 C 9,3 C 88 % 1021,4 hPa 0,0 mm 0,0 km/h (0 Bft) W-NW 292 7,0 C 0,0 km/h (0 Bft)
19.09.2015 08:55 9,0 C 9,4 C 88 % 1021,6 hPa 0,0 mm 0,0 km/h (0 Bft) N 360 7,1 C 0,0 km/h (0 Bft)
19.09.2015 09:00 9,2 C 9,6 C 88 % 1021,6 hPa 0,0 mm 0,0 km/h (0 Bft) N 360 7,3 C 0,0 km/h (0 Bft)
19.09.2015 09:05 9,3 C 9,7 C 88 % 1021,6 hPa 0,0 mm 0,0 km/h (0 Bft) N 360 7,4 C 0,0 km/h (0 Bft)
19.09.2015 09:10 9,4 C 9,9 C 88 % 1021,6 hPa 0,0 mm 0,0 km/h (0 Bft) N 360 7,5 C 0,0 km/h (0 Bft)
19.09.2015 09:15 9,4 C 10,1 C 88 % 1021,8 hPa 0,0 mm 0,0 km/h (0 Bft) N 360 7,5 C 0,0 km/h (0 Bft)
19.09.2015 09:20 9,6 C 10,1 C 88 % 1021,8 hPa 0,0 mm 0,0 km/h (0 Bft) N 360 7,7 C 0,0 km/h (0 Bft)
19.09.2015 09:25 9,6 C 10,2 C 88 % 1021,8 hPa 0,0 mm 0,0 km/h (0 Bft) N 360 7,7 C 0,0 km/h (0 Bft)
19.09.2015 09:30 9,8 C 10,3 C 88 % 1021,8 hPa 0,0 mm 0,0 km/h (0 Bft) N 360 7,9 C 0,0 km/h (0 Bft)
19.09.2015 09:35 9,8 C 10,5 C 88 % 1021,8 hPa 0,0 mm 0,0 km/h (0 Bft) NW 315 7,9 C 0,0 km/h (0 Bft)
19.09.2015 09:40 10,0 C 11,0 C 88 % 1021,8 hPa 0,0 mm 0,3 km/h (0 Bft) NO 45 8,1 C 0,0 km/h (0 Bft)
19.09.2015 09:45 10,2 C 11,5 C 88 % 1021,8 hPa 0,0 mm 0,3 km/h (0 Bft) NO 45 8,3 C 0,0 km/h (0 Bft)
19.09.2015 09:50 10,4 C 12,3 C 88 % 1021,8 hPa 0,0 mm 0,0 km/h (0 Bft) NO 45 8,5 C 0,0 km/h (0 Bft)
19.09.2015 09:55 10,6 C 12,9 C 88 % 1021,9 hPa 0,0 mm 0,0 km/h (0 Bft) NO 45 8,7 C 0,0 km/h (0 Bft)
19.09.2015 10:00 10,7 C 13,6 C 88 % 1021,9 hPa 0,0 mm 0,0 km/h (0 Bft) O-NO 67 8,8 C 0,0 km/h (0 Bft)
19.09.2015 10:05 10,9 C 13,8 C 88 % 1021,9 hPa 0,0 mm 0,0 km/h (0 Bft) N 360 9,0 C 0,0 km/h (0 Bft)
19.09.2015 10:10 11,2 C 14,3 C 88 % 1021,9 hPa 0,0 mm 0,0 km/h (0 Bft) NO 45 9,3 C 0,0 km/h (0 Bft)
19.09.2015 10:15 11,4 C 14,7 C 88 % 1022,0 hPa 0,0 mm 0,3 km/h (0 Bft) NW 315 9,5 C 2,8 km/h (1 Bft)
19.09.2015 10:20 11,8 C 15,2 C 88 % 1022,0 hPa 0,0 mm 0,3 km/h (0 Bft) N-NW 337 9,9 C 0,0 km/h (0 Bft)
19.09.2015 10:25 12,0 C 15,5 C 88 % 1022,0 hPa 0,0 mm 0,3 km/h (0 Bft) O-SO 112 10,1 C 0,0 km/h (0 Bft)
19.09.2015 10:30 12,1 C 15,8 C 88 % 1022,0 hPa 0,0 mm 0,0 km/h (0 Bft) O-SO 112 10,2 C 0,0 km/h (0 Bft)
19.09.2015 10:35 12,2 C 16,1 C 88 % 1022,1 hPa 0,0 mm 0,0 km/h (0 Bft) O-NO 67 10,3 C 0,0 km/h (0 Bft)
19.09.2015 10:40 12,5 C 16,3 C 88 % 1022,1 hPa 0,0 mm 0,3 km/h (0 Bft) W 270 10,6 C 7,3 km/h (2 Bft)
19.09.2015 10:45 12,7 C 16,4 C 88 % 1022,1 hPa 0,0 mm 0,5 km/h (0 Bft) O 90 10,8 C 0,0 km/h (0 Bft)
19.09.2015 10:50 12,9 C 17,0 C 87 % 1022,1 hPa 0,0 mm 0,5 km/h (0 Bft) O-NO 67 10,8 C 0,0 km/h (0 Bft)
19.09.2015 10:55 13,3 C 17,5 C 87 % 1022,2 hPa 0,0 mm 0,0 km/h (0 Bft) O-NO 67 11,2 C 0,0 km/h (0 Bft)
19.09.2015 11:00 14,0 C 19,2 C 85 % 1022,2 hPa 0,0 mm 0,8 km/h (0 Bft) O-NO 67 11,5 C 0,0 km/h (0 Bft)
19.09.2015 11:05 14,3 C 20,6 C 85 % 1022,2 hPa 0,0 mm 1,0 km/h (0 Bft) O-SO 112 11,8 C 0,0 km/h (0 Bft)
19.09.2015 11:10 14,8 C 21,2 C 84 % 1022,2 hPa 0,0 mm 0,5 km/h (0 Bft) O-NO 67 12,1 C 3,1 km/h (1 Bft)
19.09.2015 11:15 15,1 C 21,7 C 82 % 1022,4 hPa 0,0 mm 0,5 km/h (0 Bft) O-NO 67 12,0 C 0,0 km/h (0 Bft)
19.09.2015 11:20 15,5 C 23,3 C 79 % 1022,4 hPa 0,0 mm 0,5 km/h (0 Bft) NO 45 11,9 C 0,0 km/h (0 Bft)
19.09.2015 11:25 15,3 C 22,7 C 78 % 1022,4 hPa 0,0 mm 0,3 km/h (0 Bft) NO 45 11,5 C 0,0 km/h (0 Bft)
19.09.2015 11:30 15,2 C 21,1 C 77 % 1022,4 hPa 0,0 mm 1,8 km/h (1 Bft) W-NW 292 11,2 C 8,3 km/h (2 Bft)
19.09.2015 11:35 15,5 C 21,0 C 76 % 1022,7 hPa 0,0 mm 1,6 km/h (1 Bft) W-NW 292 11,3 C 0,0 km/h (0 Bft)
19.09.2015 11:40 15,8 C 21,9 C 74 % 1022,7 hPa 0,0 mm 1,6 km/h (1 Bft) W-NW 292 11,2 C 7,3 km/h (2 Bft)
19.09.2015 11:45 15,8 C 21,5 C 74 % 1022,7 hPa 0,0 mm 3,4 km/h (1 Bft) W 270 11,2 C 8,3 km/h (2 Bft)
19.09.2015 11:50 15,7 C 20,4 C 72 % 1022,7 hPa 0,0 mm 5,4 km/h (1 Bft) NW 315 10,7 C 9,6 km/h (2 Bft)
19.09.2015 11:55 15,8 C 20,4 C 71 % 1022,9 hPa 0,0 mm 4,4 km/h (1 Bft) NW 315 10,6 C 3,4 km/h (1 Bft)
19.09.2015 12:00 15,8 C 20,4 C 69 % 1022,9 hPa 0,0 mm 1,8 km/h (1 Bft) NW 315 10,1 C 2,8 km/h (1 Bft)
19.09.2015 12:05 15,9 C 20,5 C 69 % 1022,9 hPa 0,0 mm 2,3 km/h (1 Bft) W 270 10,2 C 0,0 km/h (0 Bft)
19.09.2015 12:10 16,2 C 21,0 C 69 % 1022,9 hPa 0,0 mm 3,4 km/h (1 Bft) W 270 10,5 C 4,1 km/h (1 Bft)
19.09.2015 12:15 16,0 C 21,3 C 67 % 1022,9 hPa 0,0 mm 2,6 km/h (1 Bft) W-NW 292 9,9 C 3,6 km/h (1 Bft)
19.09.2015 12:20 15,9 C 20,4 C 68 % 1022,9 hPa 0,0 mm 3,1 km/h (1 Bft) N-NO 22 10,0 C 0,0 km/h (0 Bft)
19.09.2015 12:25 16,0 C 20,2 C 67 % 1022,9 hPa 0,0 mm 3,4 km/h (1 Bft) NW 315 9,9 C 5,7 km/h (1 Bft)
19.09.2015 12:30 16,0 C 19,6 C 66 % 1022,9 hPa 0,0 mm 4,1 km/h (1 Bft) NW 315 9,7 C 10,9 km/h (2 Bft)
19.09.2015 12:35 15,9 C 19,3 C 66 % 1022,8 hPa 0,0 mm 4,9 km/h (1 Bft) W-NW 292 9,6 C 8,0 km/h (2 Bft)
19.09.2015 12:40 15,9 C 19,4 C 66 % 1022,8 hPa 0,0 mm 3,4 km/h (1 Bft) W-NW 292 9,6 C 0,0 km/h (0 Bft)
19.09.2015 12:45 15,8 C 19,4 C 65 % 1022,8 hPa 0,0 mm 1,8 km/h (1 Bft) W 270 9,2 C 0,0 km/h (0 Bft)
19.09.2015 12:50 16,7 C 21,0 C 63 % 1022,8 hPa 0,0 mm 1,0 km/h (0 Bft) NW 315 9,6 C 7,8 km/h (2 Bft)
19.09.2015 12:55 17,3 C 22,3 C 62 % 1022,7 hPa 0,0 mm 2,8 km/h (1 Bft) N-NO 22 9,9 C 3,6 km/h (1 Bft)
19.09.2015 13:00 18,0 C 22,5 C 60 % 1022,7 hPa 0,0 mm 4,4 km/h (1 Bft) O-NO 67 10,1 C 12,2 km/h (2 Bft)
19.09.2015 13:05 17,9 C 22,1 C 59 % 1022,7 hPa 0,0 mm 3,6 km/h (1 Bft) SO 135 9,8 C 6,2 km/h (2 Bft)
19.09.2015 13:10 17,3 C 21,2 C 60 % 1022,7 hPa 0,0 mm 3,1 km/h (1 Bft) N-NO 22 9,5 C 7,5 km/h (2 Bft)
19.09.2015 13:15 17,3 C 20,6 C 59 % 1023,2 hPa 0,0 mm 3,4 km/h (1 Bft) N-NW 337 9,2 C 3,6 km/h (1 Bft)
19.09.2015 13:20 17,6 C 21,7 C 59 % 1023,2 hPa 0,0 mm 1,6 km/h (1 Bft) O-NO 67 9,5 C 0,0 km/h (0 Bft)
19.09.2015 13:25 17,5 C 22,7 C 58 % 1023,2 hPa 0,0 mm 1,3 km/h (1 Bft) O-NO 67 9,1 C 3,9 km/h (1 Bft)
19.09.2015 13:30 17,4 C 22,4 C 59 % 1023,2 hPa 0,0 mm 2,1 km/h (1 Bft) NW 315 9,3 C 3,4 km/h (1 Bft)
19.09.2015 13:35 18,1 C 23,6 C 58 % 1023,4 hPa 0,0 mm 3,9 km/h (1 Bft) N-NW 337 9,7 C 8,5 km/h (2 Bft)
19.09.2015 13:40 18,6 C 24,0 C 57 % 1023,4 hPa 0,0 mm 7,5 km/h (2 Bft) NW 315 9,9 C 14,5 km/h (3 Bft)
19.09.2015 13:45 18,3 C 23,1 C 57 % 1023,4 hPa 0,0 mm 8,5 km/h (2 Bft) NO 45 9,6 C 9,8 km/h (2 Bft)
19.09.2015 13:50 18,2 C 22,9 C 55 % 1023,4 hPa 0,0 mm 8,0 km/h (2 Bft) W 270 9,0 C 17,1 km/h (3 Bft)
19.09.2015 13:55 18,3 C 23,3 C 55 % 1023,4 hPa 0,0 mm 7,8 km/h (2 Bft) W-NW 292 9,1 C 7,5 km/h (2 Bft)
19.09.2015 14:00 18,5 C 24,2 C 54 % 1023,4 hPa 0,0 mm 4,7 km/h (1 Bft) N-NO 22 9,0 C 6,0 km/h (2 Bft)
19.09.2015 14:05 18,3 C 24,4 C 53 % 1023,4 hPa 0,0 mm 4,7 km/h (1 Bft) NO 45 8,6 C 3,6 km/h (1 Bft)
19.09.2015 14:10 18,2 C 24,4 C 54 % 1023,4 hPa 0,0 mm 5,2 km/h (1 Bft) N-NO 22 8,7 C 3,1 km/h (1 Bft)
19.09.2015 14:15 18,3 C 24,6 C 55 % 1023,2 hPa 0,0 mm 5,2 km/h (1 Bft) N-NO 22 9,1 C 10,6 km/h (2 Bft)
19.09.2015 14:20 18,8 C 24,5 C 55 % 1023,2 hPa 0,0 mm 7,5 km/h (2 Bft) W-NW 292 9,6 C 15,8 km/h (3 Bft)
19.09.2015 14:25 18,6 C 23,7 C 56 % 1023,2 hPa 0,0 mm 8,8 km/h (2 Bft) W-NW 292 9,6 C 7,5 km/h (2 Bft)
19.09.2015 14:30 17,6 C 21,1 C 56 % 1023,2 hPa 0,0 mm 6,7 km/h (2 Bft) W-NW 292 8,7 C 4,1 km/h (1 Bft)
19.09.2015 14:35 16,9 C 19,8 C 56 % 1022,9 hPa 0,0 mm 4,9 km/h (1 Bft) W-NW 292 8,1 C 3,6 km/h (1 Bft)
19.09.2015 14:40 16,4 C 18,6 C 57 % 1022,9 hPa 0,0 mm 3,6 km/h (1 Bft) NW 315 7,9 C 4,4 km/h (1 Bft)
19.09.2015 14:45 16,4 C 18,2 C 57 % 1022,9 hPa 0,0 mm 3,4 km/h (1 Bft) N-NW 337 7,9 C 7,3 km/h (2 Bft)
19.09.2015 14:50 16,3 C 17,7 C 56 % 1022,9 hPa 0,0 mm 4,7 km/h (1 Bft) O 90 7,5 C 0,0 km/h (0 Bft)
19.09.2015 14:55 16,4 C 17,8 C 57 % 1022,7 hPa 0,0 mm 4,1 km/h (1 Bft) NW 315 7,9 C 6,7 km/h (2 Bft)
19.09.2015 15:00 16,2 C 17,8 C 57 % 1022,7 hPa 0,0 mm 2,8 km/h (1 Bft) W 270 7,7 C 3,1 km/h (1 Bft)
19.09.2015 15:05 16,2 C 17,9 C 57 % 1022,7 hPa 0,0 mm 3,9 km/h (1 Bft) NW 315 7,7 C 2,6 km/h (1 Bft)
19.09.2015 15:10 16,4 C 18,1 C 58 % 1022,7 hPa 0,0 mm 2,6 km/h (1 Bft) W-NW 292 8,1 C 4,7 km/h (1 Bft)
19.09.2015 15:15 16,9 C 19,1 C 57 % 1022,1 hPa 0,0 mm 3,1 km/h (1 Bft) W-NW 292 8,3 C 8,0 km/h (2 Bft)
19.09.2015 15:20 17,8 C 21,0 C 56 % 1022,1 hPa 0,0 mm 4,9 km/h (1 Bft) NW 315 8,9 C 3,9 km/h (1 Bft)
19.09.2015 15:25 18,0 C 21,8 C 56 % 1022,1 hPa 0,0 mm 5,4 km/h (1 Bft) W-SW 247 9,1 C 9,3 km/h (2 Bft)
19.09.2015 15:30 17,6 C 21,2 C 56 % 1022,1 hPa 0,0 mm 5,2 km/h (1 Bft) N-NO 22 8,7 C 5,2 km/h (1 Bft)
19.09.2015 15:35 17,0 C 20,4 C 56 % 1021,9 hPa 0,0 mm 5,2 km/h (1 Bft) O-NO 67 8,2 C 8,0 km/h (2 Bft)
19.09.2015 15:40 16,4 C 19,1 C 58 % 1021,9 hPa 0,0 mm 4,1 km/h (1 Bft) O-SO 112 8,1 C 3,1 km/h (1 Bft)
19.09.2015 15:45 16,2 C 18,4 C 58 % 1021,9 hPa 0,0 mm 4,7 km/h (1 Bft) NW 315 7,9 C 11,1 km/h (2 Bft)
19.09.2015 15:50 16,0 C 17,5 C 58 % 1021,9 hPa 0,0 mm 5,7 km/h (1 Bft) O-NO 67 7,7 C 9,8 km/h (2 Bft)
19.09.2015 15:55 16,3 C 18,2 C 58 % 1021,7 hPa 0,0 mm 6,7 km/h (2 Bft) O-SO 112 8,0 C 9,3 km/h (2 Bft)
19.09.2015 16:00 16,1 C 18,5 C 58 % 1021,7 hPa 0,0 mm 5,7 km/h (1 Bft) N-NO 22 7,8 C 6,0 km/h (2 Bft)
19.09.2015 16:05 16,1 C 18,1 C 58 % 1021,7 hPa 0,0 mm 4,7 km/h (1 Bft) N-NO 22 7,8 C 6,0 km/h (2 Bft)
19.09.2015 16:10 15,9 C 17,3 C 59 % 1021,7 hPa 0,0 mm 3,4 km/h (1 Bft) N-NO 22 7,9 C 2,8 km/h (1 Bft)
19.09.2015 16:15 15,7 C 17,0 C 60 % 1021,6 hPa 0,0 mm 2,1 km/h (1 Bft) N 360 8,0 C 3,4 km/h (1 Bft)
19.09.2015 16:20 15,5 C 16,4 C 60 % 1021,6 hPa 0,0 mm 2,8 km/h (1 Bft) NW 315 7,8 C 4,9 km/h (1 Bft)
19.09.2015 16:25 15,5 C 16,0 C 61 % 1021,6 hPa 0,0 mm 4,1 km/h (1 Bft) NW 315 8,0 C 4,1 km/h (1 Bft)
19.09.2015 16:30 15,1 C 15,5 C 62 % 1021,6 hPa 0,0 mm 4,1 km/h (1 Bft) W-NW 292 7,9 C 4,4 km/h (1 Bft)
19.09.2015 16:35 14,7 C 14,9 C 64 % 1021,4 hPa 0,0 mm 1,0 km/h (0 Bft) NW 315 8,0 C 0,0 km/h (0 Bft)
19.09.2015 16:36 14,7 C 14,9 C 64 % 1021,4 hPa 0,0 mm 1,0 km/h (0 Bft) NW 315 8,0 C 0,0 km/h (0 Bft)
19.09.2015 16:40 14,7 C 14,9 C 64 % 1021,4 hPa 0,0 mm 1,0 km/h (0 Bft) NW 315 8,0 C 0,0 km/h (0 Bft)
19.09.2015 16:45 14,6 C 14,7 C 65 % 1021,4 hPa 0,0 mm 0,8 km/h (0 Bft) NW 315 8,1 C 0,0 km/h (0 Bft)
19.09.2015 16:50 14,5 C 14,5 C 65 % 1021,4 hPa 0,0 mm 1,6 km/h (1 Bft) NW 315 8,0 C 0,0 km/h (0 Bft)
19.09.2015 16:55 14,4 C 14,4 C 65 % 1021,4 hPa 0,0 mm 1,6 km/h (1 Bft) N-NW 337 7,9 C 4,9 km/h (1 Bft)
19.09.2015 17:00 14,3 C 14,2 C 66 % 1021,4 hPa 0,0 mm 0,8 km/h (0 Bft) W-NW 292 8,0 C 0,0 km/h (0 Bft)
19.09.2015 17:05 14,1 C 14,0 C 67 % 1021,4 hPa 0,0 mm 0,5 km/h (0 Bft) W-NW 292 8,1 C 0,0 km/h (0 Bft)
19.09.2015 17:10 13,8 C 13,7 C 68 % 1021,4 hPa 0,0 mm 0,0 km/h (0 Bft) W 270 8,0 C 0,0 km/h (0 Bft)
19.09.2015 17:15 13,3 C 13,1 C 69 % 1021,4 hPa 0,7 mm 0,5 km/h (0 Bft) S 180 7,7 C 2,8 km/h (1 Bft)
19.09.2015 17:20 12,7 C 12,5 C 79 % 1021,4 hPa 0,0 mm 2,3 km/h (1 Bft) SO 135 9,2 C 3,4 km/h (1 Bft)
19.09.2015 17:25 12,4 C 12,2 C 82 % 1021,4 hPa 0,0 mm 3,4 km/h (1 Bft) SO 135 9,4 C 4,7 km/h (1 Bft)
19.09.2015 17:30 12,3 C 12,1 C 83 % 1021,4 hPa 0,0 mm 4,1 km/h (1 Bft) S-SO 157 9,5 C 4,1 km/h (1 Bft)
19.09.2015 17:35 12,2 C 12,0 C 83 % 1021,4 hPa 0,0 mm 4,1 km/h (1 Bft) SO 135 9,4 C 4,4 km/h (1 Bft)
19.09.2015 17:40 12,2 C 12,0 C 84 % 1021,4 hPa 0,0 mm 3,4 km/h (1 Bft) SO 135 9,6 C 4,1 km/h (1 Bft)
19.09.2015 17:45 12,2 C 12,0 C 78 % 1021,4 hPa 0,0 mm 2,8 km/h (1 Bft) SO 135 8,5 C 3,1 km/h (1 Bft)
19.09.2015 17:50 12,2 C 12,0 C 78 % 1021,4 hPa 0,0 mm 2,8 km/h (1 Bft) SO 135 8,5 C 4,7 km/h (1 Bft)
19.09.2015 17:55 12,2 C 12,1 C 79 % 1021,3 hPa 0,0 mm 3,6 km/h (1 Bft) SO 135 8,7 C 4,4 km/h (1 Bft)
19.09.2015 18:00 12,2 C 12,1 C 79 % 1021,3 hPa 0,0 mm 3,4 km/h (1 Bft) S 180 8,7 C 5,2 km/h (1 Bft)
19.09.2015 18:05 12,2 C 12,0 C 85 % 1021,3 hPa 0,0 mm 2,6 km/h (1 Bft) SO 135 9,8 C 0,0 km/h (0 Bft)
19.09.2015 18:10 12,1 C 12,0 C 80 % 1021,3 hPa 0,0 mm 1,3 km/h (1 Bft) O-SO 112 8,8 C 0,0 km/h (0 Bft)
19.09.2015 18:15 12,1 C 12,0 C 81 % 1021,4 hPa 0,0 mm 0,3 km/h (0 Bft) O-SO 112 8,9 C 0,0 km/h (0 Bft)
19.09.2015 18:20 12,1 C 11,9 C 86 % 1021,4 hPa 0,0 mm 0,0 km/h (0 Bft) O-SO 112 9,8 C 0,0 km/h (0 Bft)
19.09.2015 18:25 12,0 C 11,8 C 86 % 1021,4 hPa 0,0 mm 0,0 km/h (0 Bft) O 90 9,7 C 0,0 km/h (0 Bft)
19.09.2015 18:30 11,8 C 11,6 C 86 % 1021,4 hPa 0,0 mm 0,0 km/h (0 Bft) O-SO 112 9,5 C 0,0 km/h (0 Bft)
19.09.2015 18:35 11,7 C 11,5 C 86 % 1021,4 hPa 0,7 mm 0,0 km/h (0 Bft) O 90 9,4 C 0,0 km/h (0 Bft)
19.09.2015 18:40 11,6 C 11,5 C 86 % 1021,4 hPa 0,0 mm 0,0 km/h (0 Bft) O-NO 67 9,3 C 0,0 km/h (0 Bft)
19.09.2015 18:41 11,6 C 11,5 C 86 % 1021,4 hPa 0,0 mm 0,0 km/h (0 Bft) O-NO 67 9,3 C 0,0 km/h (0 Bft)
19.09.2015 18:45 11,6 C 11,5 C 86 % 1021,4 hPa 0,0 mm 0,0 km/h (0 Bft) O-NO 67 9,3 C 0,0 km/h (0 Bft)
19.09.2015 18:50 11,5 C 11,4 C 87 % 1021,4 hPa 0,0 mm 0,0 km/h (0 Bft) O-NO 67 9,4 C 0,0 km/h (0 Bft)
19.09.2015 18:55 11,4 C 11,3 C 87 % 1021,6 hPa 0,0 mm 0,0 km/h (0 Bft) O-NO 67 9,3 C 0,0 km/h (0 Bft)
19.09.2015 19:00 11,4 C 11,3 C 87 % 1021,6 hPa 0,0 mm 0,0 km/h (0 Bft) O-SO 112 9,3 C 0,0 km/h (0 Bft)
19.09.2015 19:05 11,4 C 11,2 C 86 % 1021,6 hPa 0,0 mm 0,0 km/h (0 Bft) O-NO 67 9,1 C 0,0 km/h (0 Bft)
19.09.2015 19:10 11,3 C 11,2 C 86 % 1021,6 hPa 0,0 mm 0,0 km/h (0 Bft) SO 135 9,0 C 0,0 km/h (0 Bft)
19.09.2015 19:15 11,3 C 11,1 C 86 % 1021,8 hPa 0,0 mm 0,3 km/h (0 Bft) W-SW 247 9,0 C 0,0 km/h (0 Bft)
19.09.2015 19:20 11,1 C 11,0 C 86 % 1021,8 hPa 0,0 mm 0,3 km/h (0 Bft) O-NO 67 8,8 C 0,0 km/h (0 Bft)
19.09.2015 19:25 11,1 C 11,0 C 86 % 1021,8 hPa 0,0 mm 0,3 km/h (0 Bft) O-NO 67 8,8 C 0,0 km/h (0 Bft)
19.09.2015 19:30 11,0 C 10,8 C 86 % 1021,8 hPa 0,0 mm 0,5 km/h (0 Bft) SW 225 8,7 C 3,9 km/h (1 Bft)
19.09.2015 19:35 10,9 C 10,7 C 87 % 1021,6 hPa 0,0 mm 0,5 km/h (0 Bft) S-SO 157 8,8 C 0,0 km/h (0 Bft)
19.09.2015 19:40 10,8 C 10,7 C 87 % 1021,6 hPa 0,0 mm 1,6 km/h (1 Bft) S-SW 202 8,7 C 3,1 km/h (1 Bft)
19.09.2015 19:45 10,8 C 10,7 C 87 % 1021,6 hPa 0,0 mm 2,1 km/h (1 Bft) O-NO 67 8,7 C 0,0 km/h (0 Bft)
19.09.2015 19:50 10,8 C 10,6 C 87 % 1021,6 hPa 0,0 mm 1,6 km/h (1 Bft) S 180 8,7 C 0,0 km/h (0 Bft)
19.09.2015 19:55 10,8 C 10,6 C 87 % 1021,6 hPa 0,0 mm 0,3 km/h (0 Bft) O-SO 112 8,7 C 0,0 km/h (0 Bft)
19.09.2015 20:00 10,7 C 10,6 C 87 % 1021,6 hPa 0,0 mm 0,0 km/h (0 Bft) SO 135 8,6 C 0,0 km/h (0 Bft)
19.09.2015 20:05 10,7 C 10,6 C 88 % 1021,6 hPa 0,0 mm 0,3 km/h (0 Bft) O-NO 67 8,8 C 0,0 km/h (0 Bft)
19.09.2015 20:10 10,7 C 10,6 C 88 % 1021,6 hPa 0,0 mm 0,5 km/h (0 Bft) W-SW 247 8,8 C 3,4 km/h (1 Bft)
19.09.2015 20:15 10,8 C 10,7 C 88 % 1021,9 hPa 0,0 mm 2,1 km/h (1 Bft) W-NW 292 8,9 C 7,5 km/h (2 Bft)
19.09.2015 20:20 10,8 C 10,7 C 84 % 1021,9 hPa 0,0 mm 2,8 km/h (1 Bft) SO 135 8,2 C 0,0 km/h (0 Bft)
19.09.2015 20:25 10,8 C 10,7 C 84 % 1021,9 hPa 0,0 mm 1,8 km/h (1 Bft) S-SO 157 8,2 C 0,0 km/h (0 Bft)
19.09.2015 20:30 10,8 C 10,7 C 84 % 1021,9 hPa 0,0 mm 0,0 km/h (0 Bft) SW 225 8,2 C 0,0 km/h (0 Bft)
19.09.2015 20:35 10,8 C 10,7 C 84 % 1022,2 hPa 0,0 mm 0,0 km/h (0 Bft) NW 315 8,2 C 0,0 km/h (0 Bft)
19.09.2015 20:40 10,9 C 10,7 C 88 % 1022,2 hPa 0,0 mm 0,3 km/h (0 Bft) W-SW 247 9,0 C 3,9 km/h (1 Bft)
19.09.2015 20:45 10,9 C 10,7 C 88 % 1022,2 hPa 0,7 mm 1,3 km/h (1 Bft) W-NW 292 9,0 C 2,8 km/h (1 Bft)
19.09.2015 20:50 10,8 C 10,7 C 88 % 1022,2 hPa 0,7 mm 1,6 km/h (1 Bft) W-SW 247 8,9 C 0,0 km/h (0 Bft)
19.09.2015 20:55 10,8 C 10,6 C 88 % 1022,5 hPa 0,0 mm 0,5 km/h (0 Bft) W-SW 247 8,9 C 0,0 km/h (0 Bft)
19.09.2015 21:00 10,7 C 10,6 C 88 % 1022,5 hPa 0,0 mm 0,0 km/h (0 Bft) W-SW 247 8,8 C 0,0 km/h (0 Bft)
19.09.2015 21:05 10,7 C 10,6 C 88 % 1022,5 hPa 0,0 mm 0,0 km/h (0 Bft) SW 225 8,8 C 0,0 km/h (0 Bft)
19.09.2015 21:10 10,7 C 10,6 C 88 % 1022,5 hPa 0,0 mm 0,0 km/h (0 Bft) SW 225 8,8 C 0,0 km/h (0 Bft)
19.09.2015 21:15 10,7 C 10,6 C 88 % 1022,5 hPa 0,0 mm 1,3 km/h (1 Bft) S 180 8,8 C 4,7 km/h (1 Bft)
19.09.2015 21:20 10,6 C 10,5 C 88 % 1022,5 hPa 0,0 mm 2,3 km/h (1 Bft) S 180 8,7 C 0,0 km/h (0 Bft)
19.09.2015 21:25 10,6 C 10,5 C 88 % 1022,5 hPa 0,0 mm 1,6 km/h (1 Bft) SW 225 8,7 C 0,0 km/h (0 Bft)
19.09.2015 21:30 10,5 C 10,4 C 88 % 1022,5 hPa 0,0 mm 0,8 km/h (0 Bft) W-SW 247 8,6 C 0,0 km/h (0 Bft)
19.09.2015 21:35 10,5 C 10,4 C 88 % 1022,5 hPa 0,7 mm 1,6 km/h (1 Bft) SW 225 8,6 C 4,9 km/h (1 Bft)
19.09.2015 21:40 10,4 C 10,3 C 88 % 1022,5 hPa 0,0 mm 3,6 km/h (1 Bft) SW 225 8,5 C 4,7 km/h (1 Bft)
19.09.2015 21:45 10,4 C 10,3 C 88 % 1022,5 hPa 0,0 mm 4,9 km/h (1 Bft) SW 225 8,5 C 7,0 km/h (2 Bft)
19.09.2015 21:50 10,4 C 10,3 C 88 % 1022,5 hPa 0,0 mm 3,9 km/h (1 Bft) W-SW 247 8,5 C 6,5 km/h (2 Bft)
19.09.2015 21:55 10,4 C 10,3 C 88 % 1022,7 hPa 0,0 mm 3,9 km/h (1 Bft) SW 225 8,5 C 5,4 km/h (1 Bft)
19.09.2015 22:00 10,4 C 10,3 C 88 % 1022,7 hPa 0,7 mm 3,6 km/h (1 Bft) SW 225 8,5 C 4,4 km/h (1 Bft)
19.09.2015 22:05 10,4 C 10,3 C 88 % 1022,7 hPa 0,0 mm 2,8 km/h (1 Bft) S-SO 157 8,5 C 0,0 km/h (0 Bft)
19.09.2015 22:10 10,4 C 10,3 C 88 % 1022,7 hPa 0,0 mm 1,3 km/h (1 Bft) S-SO 157 8,5 C 0,0 km/h (0 Bft)
19.09.2015 22:15 10,4 C 10,3 C 88 % 1022,8 hPa 0,0 mm 0,0 km/h (0 Bft) S-SO 157 8,5 C 0,0 km/h (0 Bft)
19.09.2015 22:20 10,3 C 10,2 C 88 % 1022,8 hPa 0,0 mm 0,0 km/h (0 Bft) W-SW 247 8,4 C 0,0 km/h (0 Bft)
19.09.2015 22:25 10,3 C 10,2 C 88 % 1022,8 hPa 0,0 mm 0,0 km/h (0 Bft) W-SW 247 8,4 C 0,0 km/h (0 Bft)
19.09.2015 22:30 10,2 C 10,1 C 88 % 1022,8 hPa 0,0 mm 0,0 km/h (0 Bft) W-SW 247 8,3 C 0,0 km/h (0 Bft)
19.09.2015 22:35 10,2 C 10,1 C 88 % 1022,8 hPa 0,0 mm 0,0 km/h (0 Bft) W-SW 247 8,3 C 0,0 km/h (0 Bft)
19.09.2015 22:40 10,2 C 10,1 C 88 % 1022,8 hPa 0,0 mm 0,3 km/h (0 Bft) W-SW 247 8,3 C 0,0 km/h (0 Bft)
19.09.2015 22:45 10,1 C 10,0 C 88 % 1022,8 hPa 0,0 mm 0,0 km/h (0 Bft) S 180 8,2 C 0,0 km/h (0 Bft)
19.09.2015 22:50 10,1 C 10,0 C 88 % 1022,8 hPa 0,0 mm 0,0 km/h (0 Bft) S 180 8,2 C 0,0 km/h (0 Bft)
19.09.2015 22:55 10,1 C 10,0 C 88 % 1022,9 hPa 0,0 mm 0,0 km/h (0 Bft) SW 225 8,2 C 0,0 km/h (0 Bft)
19.09.2015 23:00 10,0 C 9,9 C 88 % 1022,9 hPa 0,0 mm 0,0 km/h (0 Bft) W-SW 247 8,1 C 0,0 km/h (0 Bft)
19.09.2015 23:05 10,0 C 9,9 C 88 % 1022,9 hPa 0,0 mm 0,0 km/h (0 Bft) S 180 8,1 C 0,0 km/h (0 Bft)
19.09.2015 23:10 10,0 C 9,9 C 88 % 1022,9 hPa 0,0 mm 0,0 km/h (0 Bft) S 180 8,1 C 0,0 km/h (0 Bft)
19.09.2015 23:15 10,0 C 9,9 C 88 % 1022,9 hPa 0,0 mm 0,0 km/h (0 Bft) S 180 8,1 C 0,0 km/h (0 Bft)
19.09.2015 23:20 10,0 C 9,9 C 88 % 1022,9 hPa 0,0 mm 0,0 km/h (0 Bft) S-SW 202 8,1 C 0,0 km/h (0 Bft)
19.09.2015 23:25 10,0 C 9,9 C 88 % 1022,9 hPa 0,0 mm 0,8 km/h (0 Bft) W-SW 247 8,1 C 3,1 km/h (1 Bft)
19.09.2015 23:30 10,0 C 9,9 C 88 % 1022,9 hPa 0,0 mm 3,1 km/h (1 Bft) W-SW 247 8,1 C 2,8 km/h (1 Bft)
19.09.2015 23:35 10,0 C 9,9 C 88 % 1023,1 hPa 0,0 mm 2,8 km/h (1 Bft) S 180 8,1 C 3,9 km/h (1 Bft)
19.09.2015 23:40 10,0 C 9,9 C 89 % 1023,1 hPa 0,0 mm 0,5 km/h (0 Bft) SW 225 8,3 C 0,0 km/h (0 Bft)
19.09.2015 23:45 10,0 C 9,9 C 89 % 1023,1 hPa 0,0 mm 0,3 km/h (0 Bft) W 270 8,3 C 0,0 km/h (0 Bft)
19.09.2015 23:50 10,0 C 9,9 C 89 % 1023,1 hPa 0,0 mm 0,0 km/h (0 Bft) SW 225 8,3 C 0,0 km/h (0 Bft)
19.09.2015 23:55 10,0 C 9,9 C 89 % 1023,0 hPa 0,0 mm 0,0 km/h (0 Bft) S 180 8,3 C 0,0 km/h (0 Bft)
_ Min-Zeit 07:10 07:10 14:05 06:10 - 23:55 - - 07:45 23:55
Minimum _ 6,1 C 6,0 C 53 % 1021,1 hPa - 0,0 km/h (0 Bft) - - 4,9 C 0,0 km/h (0 Bft)
_ Max-Zeit 14:20 14:15 07:40 14:10 22:00 14:25 - - 11:10 13:50
Maximum _ 18,8 C 24,6 C 92 % 1023,4 hPa 0,7 mm 8,8 km/h
W-NW (2 Bft)
- - 12,1 C 17,1 km/h
W (3 Bft)
Durchschnitt _ 11,1 C 12,1 C 82 % 1022,0 hPa #4,1 mm 1,3 km/h (1 Bft) W-NW - 7,8 C 1,7 km/h (1 Bft)